Regional Weather Roundup
Issued by NWS Upton, NY

Current Version | Previous Version | Graphics & Text | Print | Product List | Glossary Off
Versions: 1 2 3 4 5 6 7 8 9 10 11 12 13 14 15 16 17 18 19 20 21 22 23 24 25 26 27 28 29 30 31 32 33 34 35 36 37 38 39 40 41 42 43 44 45 46 47 48 49 50

000
ASUS41 KOKX 300008
RWROKX

REGIONAL WEATHER ROUNDUP
NATIONAL WEATHER SERVICE NEW YORK NY
800 PM EDT SUN MAR 29 2015

NOTE: "FAIR" INDICATES FEW OR NO CLOUDS BELOW 12,000 FEET WITH NO
SIGNIFICANT WEATHER AND/OR OBSTRUCTIONS TO VISIBILITY.

NYZ071-072-176-178-NJZ106-104-300100-
NEW YORK CITY METRO AREA


CITY           SKY/WX    TMP DP  RH WIND       PRES   REMARKS
CENTRAL PARK   CLEAR     45   1  16 W6        30.17F
LAGUARDIA APRT PTCLDY    40  18  41 S14       30.16S WCI  32
KENNEDY INTL   PTCLDY    37  22  54 S16       30.18F WCI  28
NEWARK/LIBERTY PTCLDY    43   6  21 SW9       30.16S
BRNX BOT. GARD   N/A    N/A N/A N/A SE9       30.15F
TETERBORO      CLEAR     44   4  19 SW6       30.14F
$$

NYZ177-179-078>081-300100-
LONG ISLAND NEW YORK

CITY           SKY/WX    TMP DP  RH WIND       PRES   REMARKS
FARMINGDALE    CLEAR     37  21  52 SW13      30.17S WCI  29
ISLIP          PTCLDY    37  17  44 SW10      30.15F WCI  30
SHIRLEY        CLEAR     36  20  52 S6        30.18S WCI  31
WESTHAMPTON    CLEAR     34  18  52 SW6       30.19S WCI  29
MONTAUK POINT    N/A     37  16  42 SW5       30.18R WCI  33
$$

NYZ052-065-067-300100-
HUDSON VALLEY

CITY           SKY/WX    TMP DP  RH WIND       PRES   REMARKS
WHITE PLAINS   CLEAR     35  12  38 CALM      30.13S
NEWBURGH       NOT AVBL
MONTGOMERY     CLEAR     36  14  40 CALM      30.09F
POUGHKEEPSIE   CLEAR     39   7  26 S3        30.11F
ALBANY         PTCLDY    34  10  37 CALM      30.10F
$$

NJZ001-105-106-008-010-013-015-019>022-104-300100-
NEW JERSEY

CITY           SKY/WX    TMP DP  RH WIND       PRES   REMARKS
NEWARK/LIBERTY PTCLDY    43   6  21 SW9       30.16S
TETERBORO      CLEAR     44   4  19 SW6       30.14F
CALDWELL       CLEAR     42   3  19 CALM      30.14F
MORRISTOWN     PTCLDY    39   9  28 SW7       30.15F WCI  34
SOMERVILLE     CLEAR     37  10  32 SE3       30.12F
SUSSEX         CLEAR     35  10  35 CALM      30.10F
ANDOVER          N/A     37  13  37 CALM      30.10F
TRENTON        CLEAR     38   9  30 S6        30.14F WCI  33
MILLVILLE      CLEAR     37  11  34 CALM      30.19F
ATLANTIC CITY  CLEAR     40  10  29 SW5       30.21S
WRIGHTSTOWN    CLEAR     37   9  31 SW5       30.16F WCI  33
TOMS RIVER     CLEAR     36  19  51 S6        30.20R WCI  31
BELMAR         CLEAR     36  16  44 S5        30.18S WCI  32
$$

PAZ047>061-062-071-300100-
EASTERN PENNSYLVANIA

CITY           SKY/WX    TMP DP  RH WIND       PRES   REMARKS
PHILADELPHIA   PTCLDY    42  10  27 SW6       30.19F
ALLENTOWN      CLEAR     36  11  35 SW9       30.13F WCI  29
SCRANTON       CLEAR     37   5  26 S5        30.06F WCI  33
$$

CTZ002-004>006-009-010-012-RIZ004-006-007-MAZ004-011-015-300100-
SOUTHERN NEW ENGLAND
 IN CT

CITY           SKY/WX    TMP DP  RH WIND       PRES   REMARKS
BRADLEY INTL   PTCLDY    39   6  25 W5        30.12S
HARTFORD       CLEAR     40   5  23 SW7       30.14S
DANBURY        CLEAR     33  13  43 CALM      30.14S
WTRBRY/OXFORD  PTCLDY    36   7  30 CALM      30.13S
BRIDGEPORT     CLEAR     38  19  46 SW7       30.15F WCI  33
MERIDEN        CLEAR     33  17  51 CALM      30.14S
NEW HAVEN      PTCLDY    37  22  54 SW3       30.15S
CHESTER        FAIR      36  10  35 SW7       30.14S WCI  30
GROTON         CLEAR     35  22  58 SW8       30.15S WCI  29
WILLIMANTIC    CLEAR     36  10  34 CALM      30.13S

 IN RI

CITY           SKY/WX    TMP DP  RH WIND       PRES   REMARKS
PROVIDENCE     CLEAR     34  20  56 S7        30.14R WCI  28
BLOCK ISLAND   CLEAR     36  21  55 SW7       30.16R WCI  30
WESTERLY       CLEAR     35  22  58 SW6       30.16S WCI  30

 IN MA

CITY           SKY/WX    TMP DP  RH WIND       PRES   REMARKS
BOSTON         PTCLDY    39   9  29 SW7       30.12R WCI  34
WORCESTER      CLEAR     34   1  24 SW5       30.07F WCI  30
WESTFIELD      CLEAR     34   5  29 CALM      30.11S
PROVINCETOWN   CLEAR     30  12  47 S6        30.15R WCI  24
NANTUCKET      CLEAR     29  16  58 SE3       30.17R
$$

ANZ330-335-338-340-345-350-353-355-300100-
COASTAL MARINE OBSERVATIONS


STATION/POSITION TIME  SKY/WX   TEMP    WIND        PRES    VSBY  WAVE
                                AIR SEA DIR/SP/G                  HT/PER
                 (UTC)          (F)     (DEG/KT/KT) (MB)    (MI)  (FT/S)
NY HARB ENTRANCE 2350            36 39  200/ 17/ 19 1021.7          3/11
4S FIRE IS       2303               37                N/A           3/10
20S FIRE ISLAND  2250               39              1023.0          4/ 9
23SW MTP         2350                                 N/A           4/10
HUDSON CANYON    NOT AVBL
EXECUTION ROCKS  NOT AVBL
WESTERN LI SOUND NOT AVBL
CENTRAL LI SOUND NOT AVBL
EASTERN LI SOUND NOT AVBL
ROBBINS REEF     2300            44     250/ 10/ 12 1020.3
$$


>>>>>>>>>>>>>>>>>>>>>>>>>>>> KEY <<<<<<<<<<<<<<<<<<<<<<<<<<<
>                                                          <
>     SKY/WX - SKY CONDITION/PRESENT WEATHER               <
>     TMP    - TEMPERATURE IN FAHRENHEIT                   <
>     DP     - DEWPOINT IN FAHRENHEIT                      <
>     RH     - RELATIVE HUMIDITY IN PERCENT                <
>     WIND   - DIRECTION AND SPEED IN MPH                  <
>     PRES   - MEAN SEA LEVEL PRESSURE IN INCHES OF HG     <
>     WCI    - WIND CHILL INDEX                            <
>     VSB    - VISIBILITY IN MILES                         <
>     HX     - HEAT INDEX                                  <
>     TC     - TEMPERATURE IN CELSIUS                      <
>     VRB    - VARIABLE WIND DIRECTION                     <
>                                                          <
>>>>>>>>>>>>>>>>>>>>>>>>>>>> KEY <<<<<<<<<<<<<<<<<<<<<<<<<<<




USA.gov is the U.S. government's official web portal to all federal, state and local government web resources and services.